• In Latvia
  • List of Countries
  • For 7 days
  • Water Temperature
  • Satellite Maps
  • Weather Map
  • Weather Widgets
  • user-avatar
    Login

    Hourly Weather Mloty

    Today, 16 August, Thursday

    Time Temperature Precipitation Wind Pressure Humidity
    00:00 +15°C° 0 mm 1 mps 718 mmHg 77%
    01:00 +15°C° 0 mm 1 mps 718 mmHg 76%
    02:00 +14°C° 0 mm 1 mps 718 mmHg 76%
    03:00 +14°C° 0 mm 1 mps 718 mmHg 77%
    04:00 +14°C° 0 mm 1 mps 718 mmHg 78%
    05:00 +15°C° 0 mm 1 mps 718 mmHg 74%
    06:00 +16°C° 0 mm 0 mps 719 mmHg 71%
    07:00 +17°C° 0 mm 0 mps 719 mmHg 67%
    08:00 +20°C° 0 mm 1 mps 719 mmHg 62%
    09:00 +22°C° 0 mm 1 mps 719 mmHg 57%
    10:00 +24°C° 0 mm 1 mps 719 mmHg 51%
    11:00 +24°C° 0 mm 1 mps 719 mmHg 50%
    12:00 +24°C° 0 mm 1 mps 719 mmHg 49%
    13:00 +25°C° 0 mm 1 mps 718 mmHg 48%
    14:00 +25°C° 0 mm 1 mps 718 mmHg 48%
    15:00 +25°C° 0 mm 2 mps 718 mmHg 48%
    16:00 +25°C° 0 mm 2 mps 718 mmHg 48%
    17:00 +23°C° 0 mm 2 mps 717 mmHg 55%
    18:00 +21°C° 0 mm 2 mps 717 mmHg 61%
    19:00 +19°C° 0 mm 2 mps 717 mmHg 68%
    20:00 +18°C° 0 mm 2 mps 717 mmHg 70%
    21:00 +18°C° 0 mm 1 mps 717 mmHg 73%
    22:00 +16°C° 0 mm 1 mps 717 mmHg 75%
    23:00 +16°C° 0 mm 1 mps 716 mmHg 76%

    Tomorrow, 17 August, Friday

    Time Temperature Precipitation Wind Pressure Humidity
    00:00 +16°C° 0 mm 1 mps 716 mmHg 77%
    01:00 +15°C° 0 mm 1 mps 716 mmHg 78%
    02:00 +15°C° 0 mm 1 mps 716 mmHg 79%
    03:00 +15°C° 0 mm 1 mps 716 mmHg 81%
    04:00 +15°C° 0 mm 1 mps 716 mmHg 82%
    05:00 +16°C° 0 mm 1 mps 716 mmHg 78%
    06:00 +19°C° 0 mm 1 mps 716 mmHg 74%
    07:00 +20°C° 0 mm 1 mps 716 mmHg 70%
    08:00 +22°C° 0 mm 1 mps 716 mmHg 65%
    09:00 +23°C° 0 mm 1 mps 716 mmHg 59%
    10:00 +25°C° 0 mm 1 mps 717 mmHg 53%
    11:00 +26°C° 0 mm 1 mps 716 mmHg 50%
    12:00 +27°C° 0 mm 1 mps 716 mmHg 47%
    13:00 +27°C° 0 mm 1 mps 716 mmHg 44%
    14:00 +27°C° 0 mm 1 mps 716 mmHg 44%
    15:00 +27°C° 0 mm 1 mps 716 mmHg 44%
    16:00 +27°C° 0 mm 1 mps 715 mmHg 44%
    17:00 +26°C° 0 mm 1 mps 715 mmHg 49%
    18:00 +24°C° 0 mm 1 mps 715 mmHg 55%
    19:00 +22°C° 0 mm 1 mps 715 mmHg 61%
    20:00 +21°C° 0 mm 1 mps 715 mmHg 63%
    21:00 +21°C° 0 mm 1 mps 715 mmHg 66%
    22:00 +20°C° 0 mm 1 mps 715 mmHg 68%
    23:00 +19°C° 0 mm 1 mps 715 mmHg 70%

    Day after tomorrow, 18 August, Saturday

    Time Temperature Precipitation Wind Pressure Humidity
    00:00 +19°C° 0 mm 1 mps 715 mmHg 71%
    01:00 +17°C° 0 mm 0 mps 715 mmHg 73%
    02:00 +16°C° 0 mm 0 mps 716 mmHg 73%
    03:00 +16°C° 0 mm 0 mps 716 mmHg 74%
    04:00 +16°C° 0 mm 0 mps 716 mmHg 75%
    05:00 +17°C° 0 mm 0 mps 716 mmHg 72%
    06:00 +18°C° 0 mm 0 mps 717 mmHg 69%
    07:00 +20°C° 0 mm 0 mps 717 mmHg 65%
    08:00 +23°C° 0 mm 1 mps 717 mmHg 61%
    09:00 +25°C° 0 mm 1 mps 718 mmHg 56%
    10:00 +26°C° 0 mm 2 mps 718 mmHg 51%
    11:00 +27°C° 0.2 mm 2 mps 718 mmHg 50%
    12:00 +27°C° 0.2 mm 2 mps 718 mmHg 48%
    13:00 +27°C° 0.2 mm 2 mps 718 mmHg 47%
    14:00 +27°C° 0.3 mm 2 mps 718 mmHg 50%
    15:00 +27°C° 0.3 mm 3 mps 718 mmHg 53%
    16:00 +26°C° 0.3 mm 3 mps 718 mmHg 55%
    17:00 +25°C° 0.3 mm 3 mps 718 mmHg 62%
    18:00 +23°C° 0.3 mm 2 mps 718 mmHg 69%
    19:00 +20°C° 0.3 mm 2 mps 718 mmHg 76%
    20:00 +19°C° 0 mm 2 mps 718 mmHg 79%
    21:00 +19°C° 0 mm 2 mps 719 mmHg 82%
    22:00 +18°C° 0 mm 2 mps 719 mmHg 85%
    23:00 +17°C° 0 mm 2 mps 719 mmHg 87%

    19 August, Sunday

    Time Temperature Precipitation Wind Pressure Humidity
    00:00 +17°C° 0 mm 2 mps 719 mmHg 89%
    01:00 +18°C° 0 mm 1 mps 719 mmHg 91%
    02:00 +16°C° 0 mm 1 mps 719 mmHg 91%
    03:00 +16°C° 0 mm 1 mps 719 mmHg 92%
    04:00 +16°C° 0 mm 1 mps 719 mmHg 93%
    05:00 +18°C° 0 mm 1 mps 720 mmHg 89%
    06:00 +19°C° 0 mm 1 mps 720 mmHg 86%
    07:00 +20°C° 0 mm 1 mps 720 mmHg 82%
    08:00 +21°C° 0 mm 1 mps 721 mmHg 75%
    09:00 +22°C° 0 mm 1 mps 721 mmHg 67%
    10:00 +24°C° 0 mm 2 mps 721 mmHg 60%
    11:00 +25°C° 0 mm 2 mps 721 mmHg 57%
    12:00 +25°C° 0 mm 2 mps 721 mmHg 53%
    13:00 +26°C° 0 mm 2 mps 721 mmHg 50%
    14:00 +26°C° 0 mm 2 mps 720 mmHg 49%
    15:00 +26°C° 0 mm 2 mps 720 mmHg 47%
    16:00 +26°C° 0 mm 2 mps 720 mmHg 46%
    17:00 +24°C° 0 mm 2 mps 720 mmHg 52%
    18:00 +22°C° 0 mm 1 mps 719 mmHg 57%
    19:00 +21°C° 0 mm 1 mps 719 mmHg 62%
    20:00 +20°C° 0 mm 1 mps 719 mmHg 63%
    21:00 +19°C° 0 mm 1 mps 719 mmHg 64%
    22:00 +18°C° 0 mm 1 mps 720 mmHg 65%
    23:00 +18°C° 0 mm 1 mps 719 mmHg 66%

    20 August, Monday

    Time Temperature Precipitation Wind Pressure Humidity
    00:00 +18°C° 0 mm 1 mps 719 mmHg 66%
    01:00 +16°C° 0 mm 1 mps 719 mmHg 67%
    02:00 +16°C° 0 mm 1 mps 719 mmHg 68%
    03:00 +16°C° 0 mm 1 mps 719 mmHg 68%
    04:00 +15°C° 0 mm 1 mps 718 mmHg 69%
    05:00 +18°C° 0 mm 1 mps 719 mmHg 67%
    06:00 +19°C° 0 mm 1 mps 719 mmHg 65%
    07:00 +20°C° 0 mm 1 mps 719 mmHg 63%
    08:00 +22°C° 0 mm 1 mps 719 mmHg 59%
    09:00 +24°C° 0 mm 1 mps 719 mmHg 54%
    10:00 +26°C° 0 mm 1 mps 720 mmHg 49%
    11:00 +27°C° 0 mm 1 mps 719 mmHg 46%
    12:00 +27°C° 0 mm 2 mps 719 mmHg 44%
    13:00 +28°C° 0 mm 2 mps 719 mmHg 41%
    14:00 +28°C° 0 mm 2 mps 719 mmHg 41%
    15:00 +28°C° 0 mm 2 mps 718 mmHg 41%
    16:00 +28°C° 0 mm 2 mps 718 mmHg 40%
    17:00 +27°C° 0 mm 1 mps 718 mmHg 46%
    18:00 +25°C° 0 mm 1 mps 718 mmHg 51%
    19:00 +23°C° 0 mm 1 mps 717 mmHg 57%
    20:00 +22°C° 0 mm 1 mps 717 mmHg 59%
    21:00 +21°C° 0 mm 1 mps 718 mmHg 61%
    22:00 +20°C° 0 mm 1 mps 718 mmHg 63%
    23:00 +20°C° 0 mm 1 mps 718 mmHg 65%

    21 August, Tuesday

    Time Temperature Precipitation Wind Pressure Humidity
    00:00 +20°C° 0 mm 1 mps 718 mmHg 66%
    01:00 +19°C° 0 mm 1 mps 718 mmHg 68%
    02:00 +19°C° 0 mm 1 mps 718 mmHg 69%
    03:00 +18°C° 0 mm 1 mps 717 mmHg 71%
    04:00 +18°C° 0 mm 1 mps 717 mmHg 73%
    05:00 +17°C° 0 mm 0 mps 718 mmHg 70%
    06:00 +19°C° 0 mm 0 mps 718 mmHg 68%
    07:00 +20°C° 0 mm 0 mps 718 mmHg 65%
    08:00 +22°C° 0 mm 0 mps 718 mmHg 60%
    09:00 +25°C° 0 mm 1 mps 718 mmHg 55%
    10:00 +27°C° 0 mm 1 mps 719 mmHg 49%
    11:00 +28°C° 0 mm 1 mps 718 mmHg 47%
    12:00 +28°C° 0 mm 1 mps 718 mmHg 45%
    13:00 +29°C° 0 mm 1 mps 718 mmHg 43%
    14:00 +29°C° 0 mm 1 mps 718 mmHg 43%
    15:00 +29°C° 0 mm 1 mps 717 mmHg 44%
    16:00 +29°C° 0 mm 1 mps 717 mmHg 44%
    17:00 +27°C° 0 mm 1 mps 717 mmHg 49%
    18:00 +25°C° 0 mm 1 mps 716 mmHg 55%
    19:00 +24°C° 0 mm 1 mps 716 mmHg 60%
    20:00 +23°C° 0.1 mm 1 mps 716 mmHg 63%
    21:00 +22°C° 0.1 mm 1 mps 716 mmHg 66%
    22:00 +21°C° 0.1 mm 1 mps 716 mmHg 69%
    23:00 +21°C° 0 mm 1 mps 716 mmHg 71%
    Show more